星链-6079 (STARLINK-6079 )

导读 | 星芒AI

STARLINK-6079 是 SpaceX 星链计划中的一颗低轨通信卫星,属于第 15 批组网发射的星链卫星群。该卫星于 2022 年 9 月 由猎鹰九号火箭送入近地轨道,旨在为全球用户提供高速互联网服务。星链系统通过部署大量卫星,构建覆盖全球的宽带网络,尤其服务于偏远地区。STARLINK-6079 采用先进通信技术,具备高带宽和低延迟特性,有助于提升全球互联网接入的普及率和质量。

基本信息
目录编号:
56120
目录名称:
STARLINK-6079
国际标识:
2023-046AD
轨道中心:
EARTH
卫星名称:
星链-6079
卫星全名:
星链-6079 (STARLINK-6079 )
卫星状态:
在轨 (已飞行998 天)
发射日期:
2023-03-29 UTC
国别 :
美国 (US)
星等 :
--
轨道信息
数据来源 国际轨道数据 AOE轨道数据
星历时间 2025-12-21T08:39:14+0800
18小时前
查看轨道信息
2025-12-21T21:00:00+0800
6小时前
查看轨道信息
半长轴 6937.189km 6937.167km
偏心率 0.000134 0.0001576
轨道倾角 43.003° 43.001°
近地点辐角 264.986° 258.064°
升交点赤经 213.876° 211.082°
平近点角 95.083° 7.802°
近地点 558.122km 557.936km
远地点 559.982km 560.124km
周期 95.837分钟 95.837分钟
每日圈数 15.025451 15.025523
详细信息
固有亮度:
5
最大亮度:
2.5
卫星平台:
Starlink v1.5
覆盖范围:
全球
运营商:
太空探索技术公司
运营商所在国:
美国
制造商(研发单位):
太空探索技术公司
制造商所在国:
美国
使用方式:
暂无
卫星简介
星链(Starlink)计划是由太空探索技术公司(SpaceX)提出的一个巨型低轨卫星互联网星座项目,计划在2019年至2024年间在太空搭建由约1.2万颗卫星组成的“星链”网络,其中1584颗将部署在地球上空550千米处的近地轨道,并从2020年开始工作。该卫星仍在工作。
2D轨道图
3D轨道图
轨道高度分析图
轨道倾角分析图
轨道综合分析图
查看轨道综合分析图